Retour au catalogue

STARLINK-11465

ActifCommunicationsVLEO
NORAD 62057·PAYLOAD·🇺🇸 United States

Lancé Nov 24, 2024 depuis Vandenberg Space Force Base

Loading…

Prochains Passages (prochaines 24 heures)

TLE

FraisSource: CelesTrak SupGP

Époque: Sep 15, 2026, 03:11 UTC

1 62057C 24217A   26258.13312500 -.00083262  00000+0 -68567-3 0  2589
2 62057  53.1576 217.1624 0001148  91.0272 160.1088 15.69757437    16

Suivez STARLINK-11465 en temps réel avec AllMySat

Download on the App Store